Starlink 11568

operational
NORAD ID: 63307 Int'l Des: 2025-057 Owner: SPXS Country: US Constellation: starlink
LEOCIRCULAR

Über Starlink 11568

Beschreibung wird geladen...

Live-Position

3D-Globus wird geladen...

Nächste Überflüge

Höhenverlauf

Altitude vs Time

uPlot chart will show altitude changes over time

Zweizeiliger Elementsatz

1 63307U 25057A 25352.50905737 .00187943 00000-0 14321-2 0 9996
2 63307 42.9989 33.5372 0000813 260.9326 99.1450 15.70892787 44410
Epoch: 18. Dez. 2025 • Age: 14 hours

Aktueller Status

Höhe 355.0 km
Geschwindigkeit 7.70 km/s
Subsatellitenpunkt 17.25°N, 63.57°E
Startdatum 18. März 2025
Alter 0.7 years
Typ internet

Technische Details

Klassifizierung Payload
Masse 960.00 kg
Trockenmasse 910.00 kg
Gesamtmasse 960.00 kg
Länge 0.30 m
Durchmesser 4.10 m
Spannweite 29.00 m
Form Box + pan
Hersteller SPXS
Bus-Typ Starlink V2MD
Phasenstatus In Orbit
Besitzer/Staat SPXS/US

Große Konstellationen

Loading constellations...